GW1912 Weather Reports


time (UTC)temp
C
wind
direction
speed
KPH
gust
KPH
rain 1hr
cm
rain 24hr
cm
rain mn
cm
humidity
%
barometer
mb
20260506212031 6 347 1.6 3.2 0.08 2.44 2.18 96 1008.0
20260506211543 6 328 1.6 3.2 0.08 2.44 2.18 97 1008.1
20260506211031 6 326 1.6 3.2 0.08 2.44 2.18 97 1007.9
20260506210535 6 349 1.6 3.2 0.10 2.44 2.18 97 1007.9
20260506210049 6 335 1.6 4.8 0.08 2.41 2.16 97 1007.8
20260506205531 6 338 1.6 4.8 0.08 2.44 2.16 97 1008.0
20260506205031 6 327 1.6 4.8 0.08 2.44 2.16 96 1008.0
20260506204541 6 330 1.6 4.8 0.08 2.44 2.16 96 1008.2
20260506204031 6 316 1.6 3.2 0.05 2.41 2.13 97 1008.1
20260506203532 6 326 1.6 4.8 0.05 2.41 2.13 96 1008.1
20260506203051 6 323 1.6 4.8 0.05 2.41 2.13 96 1008.2
20260506202531 6 354 1.6 4.8 0.03 2.39 2.11 96 1008.2
20260506202032 6 316 1.6 4.8 0.03 2.39 2.11 96 1008.1
20260506201600 6 349 1.6 4.8 0.05 2.39 2.11 96 1008.2
20260506201034 6 325 1.6 4.8 0.05 2.39 2.11 96 1008.1
20260506200531 6 327 1.6 4.8 0.03 2.36 2.08 96 1008.1
20260506200043 6 329 1.6 3.2 0.05 2.36 2.08 96 1008.1
20260506195531 6 324 0.0 3.2 0.05 2.54 2.08 96 1008.0
20260506195032 6 329 1.6 3.2 0.05 2.54 2.08 96 1008.0
20260506194550 6 317 1.6 3.2 0.05 2.54 2.08 96 1007.8
20260506194033 6 334 1.6 3.2 0.05 2.54 2.08 96 1007.9
20260506193535 6 322 0.0 3.2 0.08 2.54 2.08 96 1008.0
20260506193045 6 326 0.0 1.6 0.08 2.54 2.08 96 1008.0
20260506192531 6 326 0.0 1.6 0.08 2.54 2.08 96 1007.9
20260506192031 6 330 0.0 1.6 0.08 2.54 2.08 96 1007.8
20260506191541 6 0 0.0 1.6 0.05 2.51 2.06 97 1007.8
20260506191034 6 322 0.0 1.6 0.05 2.51 2.06 97 1007.7
20260506190532 6 326 0.0 0.0 0.05 2.51 2.06 97 1007.7
20260506190043 6 0 0.0 1.6 0.03 2.49 2.03 96 1007.8
20260506185531 6 0 0.0 3.2 0.05 2.77 2.03 96 1007.8
20260506185031 6 326 0.0 3.2 0.05 2.77 2.03 96 1007.8
20260506184553 6 0 0.0 3.2 0.05 2.77 2.03 96 1007.9
20260506184031 6 321 1.6 3.2 0.08 2.77 2.03 96 1007.9
20260506183532 6 321 1.6 3.2 0.05 2.74 2.01 96 1008.0
20260506183050 6 319 1.6 4.8 0.10 2.74 2.01 96 1008.2
20260506182531 6 334 1.6 4.8 0.10 2.74 2.01 96 1008.2
20260506182033 6 327 1.6 3.2 0.13 2.74 2.01 96 1008.2
20260506181550 6 322 1.6 3.2 0.13 2.74 2.01 97 1008.3
20260506181032 6 338 0.0 3.2 0.15 2.74 2.01 97 1008.2
20260506180531 6 329 1.6 3.2 0.15 2.74 2.01 96 1008.5
20260506180045 6 323 1.6 3.2 0.18 2.74 2.01 97 1008.6
20260506175533 6 328 0.0 3.2 0.15 2.72 1.98 96 1008.6
20260506175033 6 320 0.0 4.8 0.18 2.72 1.98 97 1008.6
20260506174543 6 309 1.6 4.8 0.18 2.72 1.98 96 1008.7
20260506174035 6 319 1.6 4.8 0.15 2.67 1.96 96 1008.8
20260506173532 6 323 1.6 3.2 0.15 2.64 1.93 96 1008.8
20260506173104 6 326 0.0 1.6 0.15 2.64 1.91 96 1008.8
20260506172531 6 320 0.0 3.2 0.15 2.64 1.91 97 1008.7
20260506172032 6 319 1.6 3.2 0.15 2.62 1.88 96 1008.9
20260506171553 6 333 0.0 3.2 0.18 2.62 1.88 96 1008.9
20260506171031 6 331 0.0 3.2 0.18 2.59 1.85 96 1008.9
20260506170531 5 335 1.6 1.6 0.18 2.57 1.83 96 1008.8
20260506170041 5 0 0.0 3.2 0.18 2.57 1.83 96 1008.9
20260506165535 5 313 1.6 3.2 0.20 2.57 1.83 96 1008.7
20260506165031 5 326 1.6 3.2 0.20 2.54 1.80 96 1008.9
20260506164543 5 319 1.6 3.2 0.23 2.54 1.80 96 1009.0
20260506164031 5 330 1.6 4.8 0.23 2.51 1.78 96 1009.0
20260506163532 5 325 1.6 4.8 0.23 2.51 1.78 96 1008.9
20260506163059 5 328 1.6 3.2 0.23 2.49 1.75 96 1009.0
20260506162533 5 333 1.6 4.8 0.25 2.49 1.75 96 1009.1
20260506162035 5 328 1.6 4.8 0.25 2.46 1.73 96 1009.3
20260506161545 5 253 1.6 4.8 0.28 2.44 1.70 96 1009.3
20260506161036 5 318 1.6 4.8 0.28 2.41 1.68 96 1009.4
20260506160535 5 335 1.6 3.2 0.28 2.39 1.65 96 1009.3
20260506160044 5 316 1.6 4.8 0.28 2.36 1.63 96 1009.5
20260506155532 5 330 1.6 4.8 0.30 2.36 1.63 96 1009.4
20260506155033 6 320 1.6 4.8 0.30 2.34 1.60 96 1009.4
20260506154547 6 328 1.6 3.2 0.28 2.31 1.57 96 1009.5
20260506154032 6 318 1.6 4.8 0.28 2.29 1.55 96 1009.6
20260506153531 6 323 1.6 4.8 0.30 2.29 1.55 96 1009.6
20260506153047 6 326 3.2 4.8 0.30 2.26 1.52 96 1009.4
20260506152533 6 333 1.6 4.8 0.28 2.24 1.47 96 1009.2
20260506152033 6 311 1.6 3.2 0.28 2.21 1.47 96 1009.4
20260506151544 6 323 1.6 3.2 0.23 2.13 1.40 96 1009.6
20260506151032 6 330 1.6 3.2 0.20 2.11 1.37 96 1009.2
20260506150532 6 314 1.6 3.2 0.23 2.11 1.37 96 1009.2
20260506150043 6 335 1.6 3.2 0.20 2.08 1.32 96 1009.3
20260506145536 6 319 1.6 3.2 0.20 2.06 1.32 96 1009.1
20260506145036 6 323 0.0 3.2 0.20 2.03 1.30 96 1009.0
20260506144544 6 322 1.6 4.8 0.20 2.03 1.30 96 1009.1
20260506144033 6 316 1.6 4.8 0.18 2.01 1.27 95 1009.1
20260506143532 6 327 1.6 3.2 0.18 1.98 1.24 96 1009.2
20260506143038 6 330 1.6 3.2 0.15 1.96 1.22 96 1009.1
20260506142531 6 349 1.6 3.2 0.15 1.96 1.22 96 1009.2
20260506142034 6 335 1.6 4.8 0.13 1.93 1.19 95 1009.2
20260506141549 6 323 1.6 4.8 0.13 1.91 1.17 95 1009.2
20260506141035 6 325 1.6 3.2 0.13 1.91 1.17 95 1009.3
20260506140535 6 323 1.6 3.2 0.10 1.88 1.14 95 1009.4
20260506140054 6 308 1.6 3.2 0.10 1.88 1.14 95 1009.2
20260506135531 6 331 1.6 3.2 0.08 1.85 1.12 95 1009.3
20260506135032 6 335 1.6 4.8 0.08 1.83 1.09 95 1009.4
20260506134544 6 321 1.6 4.8 0.08 1.83 1.09 95 1009.3
20260506134031 6 333 1.6 4.8 0.08 1.83 1.09 95 1009.3
20260506133531 6 326 1.6 4.8 0.10 1.80 1.07 95 1009.2
20260506133047 6 330 1.6 4.8 0.15 1.80 1.07 95 1009.2
20260506132531 6 316 1.6 4.8 0.18 1.80 1.07 95 1009.2
20260506132032 6 333 1.6 4.8 0.20 1.80 1.07 95 1009.3
20260506131543 6 325 1.6 4.8 0.18 1.78 1.04 95 1009.3
20260506131034 6 326 1.6 4.8 0.20 1.78 1.04 95 1009.5
20260506130532 6 349 1.6 6.4 0.23 1.78 1.04 94 1009.6
20260506130052 6 349 3.2 6.4 0.23 1.78 1.04 94 1009.6
20260506125531 6 319 3.2 8.0 0.25 1.78 1.04 94 1009.8
20260506125031 6 324 4.8 8.0 0.23 1.75 1.02 94 1009.6
20260506124542 6 4 3.2 4.8 0.25 1.75 1.02 94 1010.0
20260506124031 6 334 3.2 4.8 0.25 1.75 1.02 94 1009.8
20260506123531 6 354 1.6 8.0 0.20 1.70 0.97 94 1009.8
20260506123044 6 309 3.2 8.0 0.18 1.65 0.91 95 1010.2
20260506122531 7 18 1.6 4.8 0.15 1.63 0.89 95 1010.4
20260506122033 6 328 1.6 4.8 0.15 1.60 0.86 94 1009.2
20260506121541 6 335 1.6 4.8 0.15 1.60 0.86 94 1010.0
20260506121029 6 343 3.2 4.8 0.15 1.57 0.84 94 1010.0
20260506120531 7 1 3.2 4.8 0.15 1.55 0.81 94 1010.1
20260506120108 7 327 3.2 4.8 0.15 1.55 0.81 94 1010.1
20260506115531 7 359 1.6 4.8 0.13 1.52 0.79 94 1010.2
20260506115031 7 22 0.0 4.8 0.13 1.52 0.79 94 1010.2
20260506114553 7 328 1.6 4.8 0.10 1.47 0.76 94 1010.2
20260506114031 7 335 1.6 3.2 0.10 1.47 0.76 94 1010.1
20260506113532 7 348 1.6 3.2 0.08 1.47 0.74 95 1010.1
20260506113044 7 335 1.6 3.2 0.08 1.47 0.74 95 1010.2
20260506112532 7 331 1.6 3.2 0.08 1.47 0.74 94 1010.3
20260506112032 7 345 0.0 1.6 0.05 1.45 0.71 94 1010.4
20260506111542 7 322 0.0 1.6 0.05 1.45 0.71 94 1010.2
20260506111033 7 335 0.0 1.6 0.03 1.42 0.69 94 1010.0
20260506110531 7 335 0.0 1.6 0.00 1.40 0.66 93 1009.7
20260506110040 7 0 0.0 1.6 0.03 1.40 0.66 93 1009.5
20260506105531 7 0 0.0 3.2 0.03 1.40 0.66 93 1009.4
20260506105034 7 0 0.0 3.2 0.03 1.40 0.66 93 1009.4
20260506104547 7 333 0.0 3.2 0.03 1.40 0.66 93 1009.3
20260506104032 7 21 0.0 3.2 0.03 1.40 0.66 93 1009.6
20260506103533 7 360 1.6 3.2 0.10 1.40 0.66 93 1009.7
20260506103042 7 337 0.0 3.2 0.10 1.40 0.66 94 1009.6
20260506102534 7 328 1.6 3.2 0.10 1.40 0.66 93 1009.6
20260506102034 8 347 1.6 1.6 0.13 1.40 0.66 93 1009.5
20260506101541 8 15 0.0 1.6 0.13 1.40 0.66 94 1009.5
20260506101032 8 29 0.0 1.6 0.13 1.40 0.66 94 1009.6
20260506100536 8 150 0.0 1.6 0.15 1.40 0.66 93 1009.6
20260506100047 8 0 0.0 0.0 0.13 1.37 0.64 93 1009.5
20260506095533 8 0 0.0 3.2 0.13 1.37 0.64 93 1009.7
20260506095032 8 0 0.0 8.0 0.13 1.37 0.64 93 1009.8
20260506094546 8 118 0.0 8.0 0.13 1.37 0.64 92 1009.7
20260506094034 8 107 0.0 3.2 0.13 1.32 0.61 92 1009.0
20260506093537 8 345 1.6 3.2 0.08 1.30 0.56 93 1010.2
20260506093103 8 348 1.6 3.2 0.08 1.30 0.56 93 1009.7
20260506092533 8 333 0.0 4.8 0.08 1.30 0.56 93 1009.5
20260506092034 8 155 0.0 4.8 0.05 1.27 0.53 93 1009.6
20260506091546 9 342 0.0 4.8 0.08 1.27 0.53 93 1009.7
20260506091034 9 320 1.6 4.8 0.08 1.27 0.53 93 1009.7
20260506090532 9 177 1.6 4.8 0.05 1.24 0.51 93 1010.0
20260506090046 9 340 1.6 4.8 0.08 1.24 0.51 94 1009.9
20260506085532 9 0 1.6 4.8 0.08 1.24 0.51 93 1009.5
20260506085032 9 126 0.0 1.6 0.08 1.24 0.51 94 1009.6
20260506084541 9 0 0.0 1.6 0.10 1.24 0.51 94 1009.7
20260506084034 10 0 0.0 1.6 0.15 1.22 0.48 94 1009.9
20260506083532 10 0 0.0 3.2 0.15 1.22 0.48 94 1009.7
20260506083045 10 320 0.0 3.2 0.15 1.22 0.48 93 1009.8
20260506082534 10 148 0.0 4.8 0.15 1.22 0.48 94 1009.8
20260506082034 10 318 0.0 4.8 0.15 1.22 0.48 94 1009.6
20260506081545 10 137 0.0 4.8 0.13 1.19 0.46 94 1009.9
20260506081033 10 0 0.0 1.6 0.13 1.19 0.46 94 1009.9
20260506080533 10 349 0.0 3.2 0.13 1.19 0.46 94 1009.8
20260506073042 10 0 0.0 1.6 0.00 1.07 0.33 92 1009.4
20260506072531 10 0 0.0 1.6 0.00 1.07 0.33 93 1009.1
20260506072030 10 0 0.0 1.6 0.00 1.07 0.33 93 1009.5
20260506071548 10 331 0.0 4.8 0.00 1.07 0.33 93 1009.5
20260506071033 11 345 0.0 4.8 0.00 1.07 0.33 93 1009.2
20260506070535 11 319 1.6 4.8 0.00 1.07 0.33 94 1009.0
20260506062031 11 343 1.6 3.2 0.05 1.07 0.33 94 1009.2
20260506061556 11 0 0.0 1.6 0.05 1.07 0.33 95 1009.2
20260506061033 11 113 0.0 1.6 0.05 1.07 0.33 95 1009.2
20260506060532 11 0 0.0 0.0 0.05 1.07 0.33 95 1009.5
20260506051031 11 0 0.0 1.6 0.23 1.02 0.28 94 1009.2
20260506050531 11 113 0.0 1.6 0.23 1.02 0.28 94 1009.7
20260506045032 11 0 0.0 1.6 0.15 0.89 0.15 93 1009.6
20260506044547 11 0 0.0 1.6 0.15 0.86 0.13 93 1009.4
20260506044031 11 0 0.0 1.6 0.10 0.81 0.08 93 1009.1
20260506043532 11 122 0.0 1.6 0.13 0.81 0.08 93 1008.8
20260506043048 11 0 0.0 1.6 0.15 0.81 0.08 93 1009.0
20260506042532 11 0 0.0 1.6 0.15 0.81 0.08 93 1008.9
20260506042033 11 0 0.0 3.2 0.13 0.79 0.05 93 1008.9
20260506041559 11 122 0.0 3.2 0.18 0.79 0.05 93 1009.0
20260506041034 11 113 0.0 1.6 0.20 0.79 0.05 93 1008.8
20260506040534 11 0 0.0 1.6 0.20 0.76 0.03 93 1009.3
20260506040049 11 115 0.0 4.8 0.20 0.74 0.00 92 1009.5
20260506035532 11 129 0.0 4.8 0.23 0.74 0.74 92 1009.4
20260506035030 11 145 1.6 4.8 0.23 0.74 0.74 91 1009.1
20260506034543 12 125 0.0 1.6 0.23 0.71 0.71 91 1009.0
20260506034033 12 130 0.0 1.6 0.23 0.71 0.71 91 1009.1
20260506033533 12 0 0.0 1.6 0.20 0.69 0.69 89 1009.3
20260506033042 12 0 0.0 1.6 0.18 0.66 0.66 88 1009.1
20260506032532 12 135 0.0 1.6 0.18 0.66 0.66 88 1008.8
20260506032033 12 141 0.0 1.6 0.18 0.66 0.66 86 1008.8
20260506031544 12 275 0.0 1.6 0.13 0.61 0.61 84 1009.0
20260506031032 12 0 0.0 1.6 0.10 0.58 0.58 84 1009.0
20260506030534 13 0 0.0 1.6 0.08 0.56 0.56 83 1008.7
20260506030043 13 327 0.0 1.6 0.05 0.53 0.53 81 1008.8
20260506025533 13 0 0.0 4.8 0.03 0.51 0.51 78 1008.7
20260506025031 13 0 0.0 4.8 0.03 0.51 0.51 79 1008.6
20260506024545 14 328 1.6 6.4 0.00 0.48 0.48 78 1008.4
20260506024033 15 335 1.6 6.4 0.00 0.48 0.48 77 1008.1
20260506023534 15 316 1.6 6.4 0.00 0.48 0.48 81 1008.5
20260506023051 15 317 1.6 6.4 0.00 0.48 0.48 82 1008.3
20260506022532 15 302 3.2 8.0 0.00 0.48 0.48 85 1008.2
20260506022033 15 312 3.2 8.0 0.00 0.48 0.48 86 1008.1
20260506021540 15 332 3.2 6.4 0.00 0.48 0.48 84 1008.0
20260506021031 15 0 0.0 0.0 0.00 0.48 0.48 81 1007.6
20260506020531 15 0 0.0 0.0 0.00 0.48 0.48 82 1007.3
20260506020110 15 0 0.0 1.6 0.00 0.48 0.48 81 1007.3
20260506015534 15 0 0.0 1.6 0.00 0.48 0.48 82 1007.3
20260506015032 15 0 0.0 0.0 0.00 0.48 0.48 82 1007.3
20260506014544 15 0 0.0 0.0 0.00 0.48 0.48 82 1007.5
20260506014031 15 0 0.0 0.0 0.00 0.48 0.48 81 1007.6
20260506013533 15 0 0.0 0.0 0.00 0.48 0.48 81 1007.4
20260506013043 15 0 0.0 0.0 0.00 0.48 0.48 81 1007.4
20260506012531 15 0 0.0 0.0 0.00 0.48 0.48 81 1007.3
20260506012033 15 0 0.0 0.0 0.00 0.48 0.48 81 1007.1
20260506011549 15 0 0.0 0.0 0.00 0.48 0.48 81 1006.9
20260506011032 16 0 0.0 0.0 0.00 0.48 0.48 81 1006.7
20260506010532 16 0 0.0 1.6 0.00 0.48 0.48 81 1006.7
20260506010045 16 0 0.0 1.6 0.00 0.48 0.48 81 1006.5
20260506005531 16 0 0.0 1.6 0.00 0.48 0.48 80 1006.7
20260506005031 16 0 0.0 1.6 0.00 0.48 0.48 80 1006.6
20260506004545 16 0 0.0 1.6 0.00 0.48 0.48 81 1006.6
20260506004034 16 0 0.0 3.2 0.00 0.48 0.48 81 1006.5
20260506003533 16 0 0.0 3.2 0.00 0.48 0.48 81 1006.5
20260506003047 16 0 0.0 3.2 0.00 0.48 0.48 82 1006.4
20260506002531 16 0 0.0 1.6 0.00 0.48 0.48 82 1006.4
20260506002031 16 60 0.0 1.6 0.00 0.48 0.48 82 1006.3
20260506001549 16 0 0.0 1.6 0.00 0.48 0.48 82 1006.2
20260506001031 16 0 0.0 1.6 0.00 0.48 0.48 83 1006.3
20260506000530 16 0 0.0 1.6 0.00 0.48 0.48 83 1006.2
20260506000056 16 65 0.0 0.0 0.00 0.48 0.48 84 1006.2
20260505235531 16 0 0.0 0.0 0.00 0.48 0.48 84 1006.1
20260505235033 16 0 0.0 0.0 0.00 0.48 0.48 84 1006.0
20260505234548 16 0 0.0 0.0 0.00 0.48 0.48 84 1006.0
20260505234032 16 0 0.0 0.0 0.00 0.48 0.48 84 1006.0
20260505233531 16 0 0.0 1.6 0.00 0.48 0.48 83 1006.1
20260505233050 16 0 0.0 1.6 0.00 0.48 0.48 84 1006.1
20260505232531 16 0 0.0 1.6 0.00 0.48 0.48 84 1006.0
20260505232031 16 0 0.0 0.0 0.00 0.48 0.48 84 1006.1
20260505231552 16 0 0.0 1.6 0.00 0.48 0.48 85 1006.0
20260505231033 16 0 0.0 1.6 0.00 0.48 0.48 85 1005.8
20260505230532 16 0 0.0 0.0 0.00 0.48 0.48 85 1005.7
20260505230048 16 0 0.0 1.6 0.00 0.48 0.48 85 1005.7
20260505225531 16 0 0.0 1.6 0.00 0.48 0.48 85 1005.6
20260505225032 16 0 0.0 1.6 0.00 0.48 0.48 84 1005.5
20260505224548 16 0 0.0 0.0 0.00 0.48 0.48 85 1005.6
20260505224034 16 0 0.0 1.6 0.00 0.48 0.48 85 1005.6
20260505223532 16 0 0.0 1.6 0.00 0.48 0.48 85 1005.6
20260505223044 16 0 0.0 1.6 0.00 0.48 0.48 87 1005.5
20260505222533 16 0 0.0 1.6 0.00 0.48 0.48 86 1005.7
20260505222038 16 0 0.0 1.6 0.00 0.48 0.48 87 1005.8
20260505221550 16 0 0.0 1.6 0.00 0.48 0.48 87 1006.0
20260505221033 16 0 0.0 1.6 0.00 0.48 0.48 87 1006.1
20260505220531 16 0 0.0 1.6 0.00 0.48 0.48 86 1005.9
20260505220053 16 352 0.0 3.2 0.00 0.48 0.48 87 1005.7
20260505215534 16 0 0.0 3.2 0.00 0.48 0.48 86 1005.6
20260505215035 16 0 0.0 1.6 0.00 0.48 0.48 87 1005.3
20260505214546 16 0 0.0 1.6 0.00 0.48 0.48 86 1005.3
20260505214032 16 0 0.0 1.6 0.00 0.48 0.48 86 1005.3
20260505213532 16 0 0.0 1.6 0.00 0.48 0.48 85 1005.2
20260505213039 16 0 0.0 1.6 0.00 0.48 0.48 85 1005.3
20260505212532 16 326 0.0 1.6 0.00 0.48 0.48 85 1005.3